Poker Uang Asli | Poker Online | Dewa Poker

Jackpot

Texas Poker Multi Jackpot System

Kini Telah hadir Jackpot SUPER ROYAL FLUSH

Kini Telah hadir Jackpot 2000 (khusus table VIP keatas).

Ikutilah global jackpot yang tersedia di system kami, dengan system jackpot terbaru dan pertama di indonesia, anda dapat membeli jackpot dengan harga 100 rupiah saja dan menangkan hadiahnya hingga puluhan juta rupiah.

Jackpot bukanlah suatu keharusan untuk dibeli, namun kami memberikan suatu fitur tambahan untuk member tercinta dari www.satriapoker.org.

Terdapat tiga pilihan harga jackpot yang bisa anda beli yaitu :100,500,1000 dan 2000(khusus table VIP Keatas) rupiah.

Hadiah dari Multi jackpot system www.satriapoker.org

  1. full house x 10 harga jackpot yang anda beli.
      (contoh:anda membeli 1000 maka:1000 X10 = 10.000)
  2. four of kind x 250 harga jackpot yang anda beli
      (contoh:anda membeli 1000 maka:1000 X250 = 250.000)
  3. Straight flush x 1200
      (contoh:anda membeli 1000 maka:1000 X1200 = 1.200.000)
  4. Royal flush x 10000 harga jackpot yang anda beli
      (contoh:anda membeli 1000 maka:1000 X10000 = 10.000.000)
  5. SUPER ROYAL FLUSH x 30000 harga jackpot yang anda beli
      (contoh:anda membeli 1000 maka:1000 X30000 = 30.000.000)

Kondisi kartu

  1. full house adalah kondisi kartu dimana kartu anda dan kartu tengah dengan total 7 kartu bisa mendapatkan nilai 5 kartu dengan kombinasi 1 tris(three of kind) dan 1 pair, contoh 3 kartu 10 dan 2 kartu 5
  2. Four of kind adalah kondisi kartu dimana kartu anda dan kartu tengah dengan total 7 kartu bisa mendapatkan nilai 5 kartu dengan kombinasi 4 kartu yang sama jumlah dan 1 kartu apapun juga contoh anda mendapatkan 4 buah kartu angka 3 dan 1 kartu apapun.
  3. Staright flush adalah kondisi kartu dimana kartu anda dan kartu tengah dengan total 7 kartu bisa mendapatkan nilai 5 kartu dengan kombinasi seri / staright dengan kembang yang sama contoh : urutan kartu dari angka 5, 6, 7, 8 , 9 10 dengan kembang yg sama misalnya as hati
  4. Royal flush adalah kondisi kartu dimana kartu anda dan kartu tengah dengan total 7 kartu bisa mendapatkan nilai 5 kartu dengan kombinasi seri / staright dengan kembang yang sama tetapi kartu tersebut haruslah dimulai dari 10. contoh 10, Queen, Jack, King dan aces dengan kembang yang sama
  5. Super Royal flush adalah kondisi kartu dimana Kedua kartu anda digabung dengan 3 kartu pertama meja haruslah royal flush. contoh kartu anda 10,Queen kembang sama dan 3 kartu pertama meja adalah Jack, King dan aces dengan kembang yang sama

Demikian adalah penjelasan dari Multi Jackpot www.satriapoker.org terima kasih dan selamat bermain salam hoki dari kami

Texas Poker Jackpot Winner

TOP SUPER ROYAL FLUSH
No.TanggalNamaPriceWin
124/06 17:20FAI50N9Super Royal flush6,000,000
224/06 14:14ISANASuper Royal flush6,000,000
324/06 10:18SYPHON88Super Royal flush3,000,000
424/06 09:01MONJUBOY9Super Royal flush30,000,000
524/06 07:31IRSOE24Super Royal flush30,000,000
TOP ROYAL FLUSH
No.TanggalNamaPriceWin
124/06 19:22FJIIWOQ9R4Royal flush2,000,000
224/06 19:18JNDJDNOFJNRoyal flush500,000
324/06 19:17EIKA77Royal flush2,000,000
424/06 18:42KLAPA22Royal flush1,000,000
524/06 18:42IWANFFLASRoyal flush5,000,000
TOP STRAIGHT FLUSH
No.TanggalNamaPriceWin
124/06 19:28RISMA_26Straight Flush600,000
224/06 19:28AF62EA01Straight Flush240,000
324/06 19:26KATAK_99Straight Flush240,000
424/06 19:25DWJECPOTRZStraight Flush120,000
524/06 19:23TFK3005Straight Flush1,200,000
LATEST JACKPOT
No.TanggalNamaPriceWin
124/06 19:28AZZR1LFull House5,000
224/06 19:28PAPAW16Full House5,000
324/06 19:28T9FRC1QZKLFour Of A Kind125,000
424/06 19:28C1E2FCA7Full House1,000
524/06 19:28RISMA_26Straight Flush600,000
624/06 19:28XIOMAI_Full House5,000
724/06 19:28OKYSUTONOFull House5,000
824/06 19:28SB0777Full House10,000
924/06 19:28TEMPENGFull House5,000
1024/06 19:28ASMA01Full House5,000
1124/06 19:28MODALANAKFull House10,000
1224/06 19:28BOLENK88Full House10,000
1324/06 19:28FHATAHILLAFull House5,000
1424/06 19:28BUNNY739Four Of A Kind125,000
1524/06 19:28PKRLO17Full House2,000
1624/06 19:28TOM2Full House1,000
1724/06 19:28TROTOAR46Full House5,000
1824/06 19:28DEDI1704Full House2,000
1924/06 19:28MRX0001Full House2,000
2024/06 19:28IUGKY8ZI5KFull House10,000
2124/06 19:28BUTOH3MFull House2,000
2224/06 19:28GUNDALA19Full House2,000
2324/06 19:28SM4DADHY1992Full House1,000
2424/06 19:28PET412UNGFull House10,000
2524/06 19:28BILTU43Full House2,000
2624/06 19:28CAAMPIONFull House10,000
2724/06 19:28TANGKI6Full House5,000
2824/06 19:28GAJIAN89Full House1,000
2924/06 19:28QAT25B7H4RFull House2,000
3024/06 19:28RAIMAS33Full House10,000
3124/06 19:28JAYJAIXXFull House1,000
3224/06 19:28BA11D3LFull House2,000
3324/06 19:28DANAD354Full House2,000
3424/06 19:28AF62EA01Straight Flush240,000
3524/06 19:28BAGAR12Full House10,000
3624/06 19:28V71IJJ9D7HFull House1,000
3724/06 19:28BEBEK681Full House1,000
3824/06 19:28BOLENK88Full House10,000
3924/06 19:28KOREN789Full House2,000
4024/06 19:27F06RKG5UXHFull House2,000
4124/06 19:27VIPRO04Full House5,000
4224/06 19:27959595Full House1,000
4324/06 19:27AYAHF1Full House2,000
4424/06 19:27MANDUROROFull House5,000
4524/06 19:27HUNG82Full House2,000
4624/06 19:27LORDOZFull House2,000
4724/06 19:27A42SINTAARA28Full House2,000
4824/06 19:27JOY_KEY88Full House5,000
4924/06 19:27BDC05907Full House1,000
5024/06 19:27JUMATJIMATFull House5,000

Domino Multi Jackpot System

Ikutilah global jackpot yang tersedia di system kami, dengan system jackpot terbaru dan pertama di indonesia, anda dapat membeli jackpot dengan harga 100 rupiah saja dan menangkan hadiahnya hingga puluhan juta rupiah.

Jackpot bukanlah suatu keharusan untuk dibeli, namun kami memberikan suatu fitur tambahan untuk member tercinta dari www.satriapoker.org.

Terdapat tiga pilihan harga jackpot yang bisa anda beli yaitu :100,500 dan 1000 rupiah.

Hadiah dari Multi jackpot system www.satriapoker.org

  1. Murni Kecil x 50 harga jackpot yang anda beli.
      (contoh:anda membeli 1000 maka:1000 X 50 = 50.000)
  2. Murni Besar x 50 harga jackpot yang anda beli
      (contoh:anda membeli 1000 maka:1000 X 50 = 50.000)
  3. BALAK x 100 harga jackpot yang anda beli
      (contoh:anda membeli 1000 maka:1000 X 100 = 100.000)
  4. ENAM DEWA x 6666 harga jackpot yang anda beli
      (contoh:anda membeli 1000 maka:1000 X 6666 = 6.666.000)

Demikian adalah penjelasan dari Multi Jackpot www.satriapoker.org terima kasih dan selamat bermain salam hoki dari kami

Domino Jackpot Winner

TOP ENAM DEWA
No.TanggalNamaPriceWin
124/06 18:09CUPI266murni enam6,666,000
224/06 16:54DKH099murni enam6,666,000
324/06 12:28RUFI123murni enam666,600
424/06 10:33RUSMA12murni enam6,666,000
524/06 08:44DK2272murni enam6,666,000
TOP BALAK
No.TanggalNamaPriceWin
124/06 19:26SERSIbalak100,000
224/06 19:25TIARA777balak50,000
324/06 19:24WILLYAM99balak10,000
424/06 19:22NEW80balak100,000
524/06 19:21LAMBORO00balak50,000
LATEST JACKPOT
No.TanggalNamaPriceWin
124/06 19:27MIKO_Rmurni besar5,000
224/06 19:27MULTI88959murni kecil50,000
324/06 19:27PBX99murni kecil5,000
424/06 19:26SERSIbalak100,000
524/06 19:26DOKODEOmurni kecil50,000
624/06 19:26CINO91murni kecil25,000
724/06 19:25KAKAKBDmurni besar50,000
824/06 19:25TIARA777balak50,000
924/06 19:25EKO197murni kecil50,000
1024/06 19:24WILLYAM99balak10,000
1124/06 19:23SAURI776murni kecil50,000
1224/06 19:23MROMEOmurni besar5,000
1324/06 19:22NEW80balak100,000
1424/06 19:21ATEPWINGKYmurni kecil5,000
1524/06 19:21LAMBORO00balak50,000
1624/06 19:21CUMPLU88murni besar5,000
1724/06 19:20M_MAIL777balak50,000
1824/06 19:20TMMIN86balak50,000
1924/06 19:19BERANGKAYmurni kecil50,000
2024/06 19:19JULIA121murni kecil50,000
2124/06 19:17MOLORIAmurni besar50,000
2224/06 19:17SAURI776murni kecil50,000
2324/06 19:16MRBON1murni besar50,000
2424/06 19:16H712V8K27Wmurni besar25,000
2524/06 19:16LB881007murni kecil5,000
2624/06 19:15HOQJACKbalak50,000
2724/06 19:14AJAY74murni besar25,000
2824/06 19:12SABUR09murni kecil50,000
2924/06 19:11MIE01murni besar50,000
3024/06 19:11KULU3balak50,000
3124/06 19:11CHEDAFmurni kecil50,000
3224/06 19:11VANHEL99murni kecil50,000
3324/06 19:10SABBLEmurni kecil50,000
3424/06 19:10PUYENGJINGlucky9925,000
3524/06 19:09KEMOOD99murni besar25,000
3624/06 19:09MROMEOmurni besar5,000
3724/06 19:08RATTIH99murni besar25,000
3824/06 19:08HUISANmurni kecil50,000
3924/06 19:08GEMEK55murni kecil50,000
4024/06 19:08ESPOY88balak100,000
4124/06 19:08RATTIH99murni besar25,000
4224/06 19:08WAHYU23469murni besar50,000
4324/06 19:06C4101CD9murni besar25,000
4424/06 19:06AHMED89murni kecil50,000
4524/06 19:03AGIN1978balak50,000
4624/06 19:03GARUDA255murni besar25,000
4724/06 19:02NRDN03murni besar50,000
4824/06 19:02MRBON1murni besar50,000
4924/06 19:01YUSEP25murni besar50,000
5024/06 19:01LB881007murni kecil5,000

Ceme Multi Jackpot System

Jackpot dilihat dari gabungan kartu pemain dengan kartu bandar. Bandar harus membeli jackpot sebanyak jumlah player yang sedang duduk. Sebagai contoh bila terdapat 3 pemain duduk bermain, dan bandar memutuskan untuk membeli jackpot Rp 1.000, maka pada periode tersebut bandar akan membeli jackpot sebanyak 3xRp1.000 = Rp3.000.

Jackpot bukanlah suatu keharusan untuk dibeli, namun kami memberikan suatu fitur tambahan untuk member tercinta dari www.satriapoker.org.

Terdapat tiga pilihan harga jackpot yang bisa anda beli yaitu :100,500 dan 1000 rupiah.

Hadiah dari Multi jackpot system www.satriapoker.org

  1. Murni Kecil x 50 harga jackpot yang anda beli.
      (contoh:anda membeli 1000 maka:1000 X 50 = 50.000)
  2. Murni Besar x 50 harga jackpot yang anda beli
      (contoh:anda membeli 1000 maka:1000 X 50 = 50.000)
  3. BALAK x 200 harga jackpot yang anda beli
      (contoh:anda membeli 1000 maka:1000 X 200 = 200.000)
  4. ENAM DEWA x 6666 harga jackpot yang anda beli
      (contoh:anda membeli 1000 maka:1000 X 6666 = 6.666.000)

Demikian adalah penjelasan dari Multi Jackpot www.satriapoker.org terima kasih dan selamat bermain salam hoki dari kami

Ceme Jackpot Winner

TOP ENAM DEWA
No.TanggalNamaPriceWin
124/06 19:26AKUNK03murni enam6,666,000
224/06 18:25MABOK234murni enam6,666,000
324/06 18:10TERKEPERmurni enam6,666,000
424/06 17:58TURENAmurni enam666,600
524/06 17:53BGEDImurni enam6,666,000
TOP BALAK
No.TanggalNamaPriceWin
124/06 19:28OVHEY27balak20,000
224/06 19:28EDW1NNbalak100,000
324/06 19:28JOHNZ26balak200,000
424/06 19:28DENISTAUFIbalak20,000
524/06 19:27SUNINSAKERbalak20,000
LATEST JACKPOT
No.TanggalNamaPriceWin
124/06 19:28BUNNY9murni kecil50,000
224/06 19:28WINWINN808murni kecil50,000
324/06 19:28JONROY69murni besar25,000
424/06 19:28OVHEY27balak20,000
524/06 19:28EDW1NNbalak100,000
624/06 19:28BONTOOD23murni kecil5,000
724/06 19:28JOHNZ26balak200,000
824/06 19:28DENISTAUFIbalak20,000
924/06 19:28ARDHANI104murni kecil25,000
1024/06 19:28JONIJOA123murni besar5,000
1124/06 19:27FAJAR041murni besar50,000
1224/06 19:27IROELSLANKmurni besar25,000
1324/06 19:27TOGEGEDEmurni besar50,000
1424/06 19:27HOPENG303murni besar25,000
1524/06 19:27SKIMMINGmurni kecil5,000
1624/06 19:27SUNINSAKERbalak20,000
1724/06 19:27BOY14BNmurni kecil50,000
1824/06 19:27KETEEEmurni kecil25,000
1924/06 19:27ODH23murni besar50,000
2024/06 19:27ARSEN98murni kecil50,000
2124/06 19:27DADANG999murni kecil50,000
2224/06 19:27GENK69murni kecil50,000
2324/06 19:27TIHKOmurni kecil50,000
2424/06 19:27SOMBRO00murni besar25,000
2524/06 19:27TERUS_OLLEmurni besar50,000
2624/06 19:26ALVARO000balak100,000
2724/06 19:26JENNY234murni kecil25,000
2824/06 19:26SARSUM8murni kecil50,000
2924/06 19:26AAY114balak100,000
3024/06 19:26DITPOLAIRmurni besar25,000
3124/06 19:26KEMPA21murni kecil50,000
3224/06 19:26HUGOSImurni kecil50,000
3324/06 19:26CUROGmurni besar50,000
3424/06 19:26MATEL46balak100,000
3524/06 19:26AKUNK03murni enam6,666,000
3624/06 19:26SOMBRO00murni kecil25,000
3724/06 19:26VANZER888murni kecil50,000
3824/06 19:26CIMOY07murni besar5,000
3924/06 19:26LB99630murni kecil50,000
4024/06 19:26FATHIRCIKbalak100,000
4124/06 19:26E59260C2balak100,000
4224/06 19:26BP881492balak200,000
4324/06 19:25ABAHAKANGbalak200,000
4424/06 19:25MLODODbalak100,000
4524/06 19:25SEUNGKO9balak100,000
4624/06 19:25FIRDAUS23balak200,000
4724/06 19:25PUKILO99murni kecil25,000
4824/06 19:25KUCINK775murni kecil50,000
4924/06 19:25NRDARNOmurni besar25,000
5024/06 19:25A53TUKIRON491murni kecil50,000